Weather Roundup
Issued by NWS

Home | Current Version | Previous Version | Graphics & Text | Print | Product List | Glossary Off
Versions: 1 2 3 4 5 6 7 8 9 10 11 12 13 14 15 16 17 18 19 20 21 22 23 24 25 26 27 28 29 30 31 32 33 34 35 36 37 38 39 40 41 42 43 44 45 46 47 48 49 50

000
NZUS93 KARX 191710
HRRWXR

CURRENT HOURLY OBSERVATIONS ACROSS
MUCH OF THE UPPER MISSISSIPPI VALLEY
NATIONAL WEATHER SERVICE LA CROSSE WI
1200 PM CDT SUN APR 19 2015


...SOUTHEAST MINNESOTA...


CITY           SKY/WX    TMP DP  RH WIND       PRES   REMARKS
ROCHESTER      CLOUDY    58  52  80 S10       29.70F
ROCHESTER/MAYO CLOUDY    58  51  77 S6        29.69F
WINONA         CLOUDY    59  43  55 SE7       29.69F
AUSTIN         CLOUDY    57  52  82 S5        29.68F
ALBERT LEA     CLOUDY    63  55  77 S6        29.67F
DODGE CENTER   PTSUNNY   59  54  82 S9        29.68F
PRESTON        CLOUDY    56  48  75 CALM      29.69F
OWATONNA       PTSUNNY   61  55  82 SW8       29.66F
FARIBAULT      CLOUDY    59  55  88 S5        29.67S
$$

...ELSEWHERE IN MINNESOTA...


CITY           SKY/WX    TMP DP  RH WIND       PRES   REMARKS
MINNEAPOLIS    CLOUDY    57  52  83 VRB5      29.65F
INTNL FALLS    CLOUDY    41  39  93 SE8       29.63F FOG
DULUTH         LGT RAIN  39  37  92 SE14      29.66S VSB 1/2 WCI  31
RED WING       CLOUDY    61  48  63 S8        29.66F
REDWOOD FALLS  CLOUDY    53  48  83 W20G28    29.69S
MANKATO        CLOUDY    57  52  82 NW20      29.66S
WORTHINGTON    CLOUDY    54  45  71 NW23      29.72F
FAIRMONT       CLOUDY    57  48  72 NW18      29.67F
$$

...SOUTHWEST WISCONSIN...


CITY           SKY/WX    TMP DP  RH WIND       PRES   REMARKS
LA CROSSE      CLOUDY    56  44  64 S3        29.70F
PRAIRIE DU CHI CLOUDY    61  39  44 E3        29.69F
BOSCOBEL       CLOUDY    69  41  36 VRB5      29.69F
LONE ROCK      PTSUNNY   66  41  40 E5        29.70F
PLATTEVILLE    PTSUNNY   67  42  40 SE6       29.68F
FORT MC COY    CLOUDY    60  37  42 E3        29.70F
CAMP DOUGLAS   CLOUDY    61  36  39 E8        29.71F
VIROQUA        FAIR      58  37  44 SE9       29.70F
WIS DELLS      PTSUNNY   65  37  35 SE10      29.71F
$$

...ELSEWHERE IN WISCONSIN...


CITY           SKY/WX    TMP DP  RH WIND       PRES   REMARKS
MILWAUKEE      PTSUNNY   52  34  50 NE7       29.78F
MADISON        CLOUDY    67  38  34 SE12      29.71F
GREEN BAY      PTSUNNY   58  33  39 SE18      29.82F
EAU CLAIRE     CLOUDY    53  38  56 SE12      29.70F
BLACK RVR FLS  PTSUNNY   55  38  52 CALM      29.71F
MEDFORD        LGT RAIN  52  36  54 SE7       29.72F
WAUSAU         CLOUDY    59  34  39 SE14      29.73F
WIS RAPIDS     PTSUNNY   62  32  32 S9        29.74F
MARSHFIELD     CLOUDY    58  34  40 SE13      29.73F
RICE LAKE      CLOUDY    52  40  64 SE12      29.70F
$$

...NORTHEAST IOWA...


CITY           SKY/WX    TMP DP  RH WIND       PRES   REMARKS
DECORAH        CLOUDY    54  46  76 SE5       29.68F
MASON CITY     CLOUDY    59  32  36 VRB6      29.69F HAZE
CHARLES CITY   CLOUDY    61  57  88 SE6       29.68F
OELWEIN        CLOUDY    55  52  88 SE8       29.68F
$$

...ELSEWHERE IN IOWA...


CITY           SKY/WX    TMP DP  RH WIND       PRES   REMARKS
DES MOINES     CLOUDY    66  59  78 NE3       29.64F
IOWA CITY      PTSUNNY   66  52  60 E6        29.66F
FORT DODGE     CLOUDY    57  54  88 W8        29.68F
$$

...NORTHERN ILLINOIS...


CITY           SKY/WX    TMP DP  RH WIND       PRES   REMARKS
CHICAGO-OHARE  PTSUNNY   67  38  34 E12       29.71F
CHICAGO-MIDWAY PTSUNNY   67  40  37 E12       29.70F
MOLINE         MOSUNNY   73  46  38 E7        29.63F
ROCKFORD       PTSUNNY   72  41  32 E13G21    29.70F
PEORIA         CLOUDY    65  48  54 E7        29.66F
$$

NOTE: "FAIR" INDICATES FEW OR NO CLOUDS BELOW 12,000 FEET WITH NO
SIGNIFICANT WEATHER AND/OR OBSTRUCTIONS TO VISIBILITY. WIND
SPEEDS ARE IN MILES-PER-HOUR.



USA.gov is the U.S. government's official web portal to all federal, state and local government web resources and services.